User: anonymous   Login
Location: Unspecified
(0.0000°N, 0.0000°E)
Time: 02:27:00
(UTC+00:00)
Language:

SOHLA-1 (MAIDO-1) - Orbit

View from above orbital plane
View from above orbital plane
View from above satellite
View from above satellite

Ground track
Ground track

The orbit data is extracted from the following two-line orbital elements,

1 33496U 09002E   22267.55553113  .00000304  00000-0  56551-4 0  9996
2 33496  98.2939 135.7120 0007089  42.4044 317.7709 14.72152845733464
Epoch (UTC): 24 September 2022 13:19:57
Eccentricity: 0.0007089
inclination: 98.2939°
perigee height: 649 km
apogee height: 659 km
right ascension of ascending node: 135.7120°
argument of perigee: 42.4044°
revolutions per day: 14.72152845
mean anomaly at epoch: 317.7709°
orbit number at epoch: 73346

The dashed part of the orbit path shows where the satellite is in the earth's shadow,  

DLR